Location: Aalen
(48.8330°N, 10.1000°E)
Time: 20:29:28
(UTC+02:00)

UNISAT 6 - Pass Details

Date: 06 April 2023
Orbit: 599 x 680 km, 97.7° (Epoch: 04 June)

Event Time Altitude Azimuth Distance (km) Brightness Sun altitude
Rises 04:23:16 0° 113° (ESE) 2,967 ? -22.2°
Reaches altitude 10° 04:26:23 10° 89° (E) 2,078 ? -21.8°
Maximum altitude 04:28:47 14° 57° (ENE) 1,816 ? -21.5°
Drops below altitude 10° 04:31:13 10° 25° (NNE) 2,109 ? -21.2°
Sets 04:34:25 0° 2° (N) 3,041 ? -20.8°
